Regional Weather Roundup
Issued by NWS

Home | Current Version | Previous Version | Text Only | Print | Product List | Glossary Off
Versions: 1 2 3 4 5 6 7 8 9 10 11 12 13 14 15 16 17 18 19 20 21 22 23 24 25 26 27 28 29 30 31 32 33 34 35 36 37 38 39 40 41 42 43 44 45 46 47 48 49 50

000
ASUS43 KFSD 191910
RWRSD

WEATHER ROUNDUP FOR SOUTH DAKOTA
NATIONAL WEATHER SERVICE SIOUX FALLS SD
200 PM CDT TUE AUG 19 2014

NOTE: "FAIR" INDICATES FEW OR NO CLOUDS BELOW 12,000 FEET WITH NO
SIGNIFICANT WEATHER AND/OR OBSTRUCTIONS TO VISIBILITY.


SDZ001>005-009-010-012>017-192000-
NORTHWEST AND NORTH CENTRAL SOUTH DAKOTA

CITY           SKY/WX    TMP DP  RH WIND       PRES   REMARKS
BUFFALO          N/A     88  55  32 VRB6      29.72F
FAITH            N/A     84  58  40 SE12      29.79F
MOBRIDGE       SUNNY     84  59  42 CALM      29.76F
$$

SDZ012>016-024>037-041>051-057-063-072>074-192000-
SOUTHWEST AND SOUTH CENTRAL SOUTH DAKOTA

CITY           SKY/WX    TMP DP  RH WIND       PRES   REMARKS
RAPID CTY ARPT MOSUNNY   81  60  48 SE13      29.82F
PIERRE         SUNNY     86  58  38 MISG      29.77F
CUSTER         SUNNY     81  53  37 E12G21    29.95F
ELLSWORTH AFB  MOSUNNY   82  58  43 SE13      29.82F
PHILIP         SUNNY     90  57  32 E13       29.77F
PINE RIDGE     MOSUNNY   91  55  29 S12G18    29.81F
WINNER         FAIR      87  58  37 E8        29.82F
$$

SDZ004>011-016>023-039-040-192000-
NORTHEAST SOUTH DAKOTA

CITY           SKY/WX    TMP DP  RH WIND       PRES   REMARKS
ABERDEEN       SUNNY     82  60  47 CALM      29.78F
WATERTOWN      SUNNY     79  62  56 W6        29.81S
SISSETON         N/A     83  65  54 N9        29.76S
$$

SDZ017-020-022-023-036>040-048>070-192000-
SOUTHEAST SOUTH DAKOTA

CITY           SKY/WX    TMP DP  RH WIND       PRES   REMARKS
SIOUX FALLS    MOSUNNY   83  62  49 NW8       29.82S
HURON          SUNNY     85  58  39 CALM      29.79S
CHAMBERLAIN    SUNNY     83  60  46 E7        29.81F
MITCHELL       SUNNY     85  62  46 N3        29.81F
YANKTON        SUNNY     81  63  54 S3        29.81F
$$

ABBREVIATIONS USED IN REMARKS
   TC - TEMPERATURE IN CELSIUS
  WCI - WIND CHILL INDEX
   HX - HEAT INDEX
  VSB - VISIBILITY




USA.gov is the U.S. government's official web portal to all federal, state and local government web resources and services.